| time (UTC) | temp F | wind direction | speed knots | gust knots | rain 1hr in | rain 24hr in | rain mn in | humidity % | barometer mb |
| 20260509173058 | 70 | 308 | 10.4 | 21.7 | 0.00 | 0.00 | 0.00 | 31 | 1004.6 |
| 20260509171603 | 69 | 338 | 12.2 | 21.7 | 0.00 | 0.00 | 0.00 | 32 | 1004.6 |
| 20260509170050 | 69 | 239 | 7.0 | 14.8 | 0.00 | 0.00 | 0.00 | 45 | 1004.7 |
| 20260509164550 | 68 | 278 | 7.0 | 13.9 | 0.00 | 0.00 | 0.00 | 49 | 1004.7 |
| 20260509163053 | 67 | 234 | 6.1 | 14.8 | 0.00 | 0.00 | 0.00 | 54 | 1004.7 |
| 20260509161552 | 66 | 213 | 5.2 | 11.3 | 0.00 | 0.00 | 0.00 | 55 | 1004.8 |
| 20260509160058 | 65 | 235 | 7.0 | 14.8 | 0.00 | 0.00 | 0.00 | 54 | 1004.7 |
| 20260509154600 | 64 | 206 | 7.8 | 13.9 | 0.00 | 0.00 | 0.00 | 58 | 1004.6 |
| 20260509153052 | 63 | 245 | 7.0 | 13.9 | 0.00 | 0.00 | 0.00 | 60 | 1004.7 |
| 20260509151553 | 64 | 259 | 8.7 | 13.0 | 0.00 | 0.00 | 0.00 | 60 | 1004.6 |
| 20260509150053 | 63 | 225 | 3.5 | 13.0 | 0.00 | 0.00 | 0.00 | 65 | 1004.7 |
| 20260509144609 | 62 | 240 | 8.7 | 13.9 | 0.00 | 0.00 | 0.00 | 65 | 1004.7 |
| 20260509143056 | 61 | 242 | 7.0 | 13.9 | 0.00 | 0.00 | 0.00 | 70 | 1004.6 |
| 20260509141558 | 60 | 242 | 9.6 | 14.8 | 0.00 | 0.00 | 0.00 | 70 | 1004.6 |
| 20260509140112 | 59 | 238 | 7.0 | 14.8 | 0.00 | 0.00 | 0.00 | 72 | 1004.5 |
| 20260509134555 | 58 | 233 | 7.8 | 13.9 | 0.00 | 0.00 | 0.00 | 74 | 1004.2 |
| 20260509133058 | 58 | 234 | 7.0 | 16.5 | 0.00 | 0.00 | 0.00 | 76 | 1004.2 |
| 20260509131558 | 57 | 260 | 8.7 | 13.0 | 0.00 | 0.00 | 0.00 | 78 | 1004.7 |
| 20260509130108 | 56 | 258 | 10.4 | 15.6 | 0.00 | 0.00 | 0.00 | 79 | 1004.9 |
| 20260509124606 | 56 | 244 | 8.7 | 16.5 | 0.00 | 0.00 | 0.00 | 80 | 1004.5 |
| 20260509123100 | 55 | 225 | 8.7 | 15.6 | 0.00 | 0.00 | 0.00 | 80 | 1004.6 |
| 20260509121604 | 55 | 202 | 9.6 | 13.9 | 0.00 | 0.00 | 0.00 | 82 | 1004.6 |
| 20260509120056 | 54 | 219 | 5.2 | 13.9 | 0.00 | 0.00 | 0.00 | 84 | 1004.5 |
| 20260509114553 | 54 | 276 | 4.3 | 11.3 | 0.00 | 0.00 | 0.00 | 84 | 1004.3 |
| 20260509113057 | 54 | 222 | 5.2 | 11.3 | 0.00 | 0.00 | 0.00 | 83 | 1004.0 |
| 20260509111608 | 54 | 260 | 6.1 | 13.0 | 0.00 | 0.00 | 0.00 | 82 | 1003.8 |
| 20260509110056 | 54 | 244 | 4.3 | 12.2 | 0.00 | 0.00 | 0.00 | 82 | 1003.9 |
| 20260509104557 | 54 | 352 | 4.3 | 8.7 | 0.00 | 0.00 | 0.00 | 82 | 1003.6 |
| 20260509103051 | 54 | 206 | 7.0 | 13.0 | 0.00 | 0.00 | 0.00 | 83 | 1003.5 |
| 20260509101553 | 54 | 185 | 4.3 | 11.3 | 0.00 | 0.00 | 0.00 | 84 | 1003.5 |
| 20260509100054 | 53 | 267 | 4.3 | 11.3 | 0.00 | 0.00 | 0.00 | 85 | 1003.6 |
| 20260509094555 | 54 | 196 | 4.3 | 10.4 | 0.00 | 0.00 | 0.00 | 85 | 1004.0 |
| 20260509093052 | 54 | 230 | 4.3 | 8.7 | 0.00 | 0.00 | 0.00 | 85 | 1004.3 |
| 20260509091553 | 54 | 219 | 4.3 | 11.3 | 0.00 | 0.00 | 0.00 | 85 | 1004.3 |
| 20260509090104 | 53 | 202 | 4.3 | 10.4 | 0.00 | 0.00 | 0.00 | 85 | 1004.3 |
| 20260509084556 | 53 | 236 | 5.2 | 10.4 | 0.00 | 0.00 | 0.00 | 84 | 1004.5 |
| 20260509083059 | 54 | 194 | 4.3 | 10.4 | 0.00 | 0.00 | 0.00 | 83 | 1004.4 |
| 20260509081556 | 54 | 229 | 3.5 | 9.6 | 0.00 | 0.00 | 0.00 | 83 | 1004.4 |
| 20260509080100 | 54 | 250 | 4.3 | 10.4 | 0.00 | 0.00 | 0.00 | 82 | 1004.4 |
| 20260509074553 | 54 | 200 | 4.3 | 9.6 | 0.00 | 0.00 | 0.00 | 81 | 1004.5 |
| 20260509073052 | 55 | 211 | 4.3 | 9.6 | 0.00 | 0.00 | 0.00 | 80 | 1004.7 |
| 20260509071555 | 55 | 225 | 4.3 | 10.4 | 0.00 | 0.00 | 0.00 | 80 | 1005.0 |
| 20260509070051 | 55 | 211 | 4.3 | 10.4 | 0.00 | 0.00 | 0.00 | 79 | 1005.3 |
| 20260509064555 | 55 | 223 | 4.3 | 10.4 | 0.00 | 0.00 | 0.00 | 79 | 1005.4 |
| 20260509063102 | 56 | 240 | 4.3 | 9.6 | 0.00 | 0.00 | 0.00 | 78 | 1005.5 |
| 20260509061551 | 56 | 181 | 6.1 | 9.6 | 0.00 | 0.00 | 0.00 | 78 | 1005.6 |
| 20260509060100 | 56 | 225 | 7.0 | 13.0 | 0.00 | 0.00 | 0.00 | 78 | 1005.8 |
| 20260509054554 | 57 | 234 | 7.8 | 14.8 | 0.00 | 0.00 | 0.00 | 77 | 1006.0 |
| 20260509053132 | 57 | 153 | 5.2 | 13.9 | 0.00 | 0.00 | 0.00 | 76 | 1005.9 |
| 20260509051551 | 57 | 211 | 6.1 | 14.8 | 0.00 | 0.00 | 0.00 | 75 | 1005.9 |
| 20260509050052 | 58 | 186 | 4.3 | 13.9 | 0.00 | 0.00 | 0.00 | 74 | 1005.9 |
| 20260509044551 | 58 | 123 | 6.1 | 13.9 | 0.00 | 0.00 | 0.00 | 72 | 1005.9 |
| 20260509043106 | 58 | 28 | 5.2 | 13.0 | 0.00 | 0.00 | 0.00 | 70 | 1006.0 |
| 20260509041601 | 59 | 265 | 5.2 | 13.0 | 0.00 | 0.00 | 0.00 | 68 | 1005.8 |
| 20260509040105 | 59 | 288 | 5.2 | 13.9 | 0.00 | 0.00 | 0.00 | 67 | 1005.9 |
| 20260509034604 | 58 | 61 | 4.3 | 9.6 | 0.00 | 0.00 | 0.00 | 67 | 1006.1 |
| 20260509033054 | 57 | 298 | 3.5 | 7.8 | 0.00 | 0.00 | 0.00 | 66 | 1006.1 |
| 20260509031605 | 56 | 109 | 4.3 | 12.2 | 0.00 | 0.00 | 0.00 | 65 | 1006.2 |
| 20260509030056 | 56 | 154 | 5.2 | 11.3 | 0.00 | 0.00 | 0.00 | 64 | 1006.2 |
| 20260509024553 | 57 | 144 | 7.0 | 12.2 | 0.00 | 0.00 | 0.00 | 62 | 1006.1 |
| 20260509023053 | 57 | 138 | 7.0 | 12.2 | 0.00 | 0.00 | 0.00 | 61 | 1006.3 |
| 20260509021552 | 57 | 137 | 7.0 | 9.6 | 0.00 | 0.00 | 0.00 | 61 | 1006.3 |
| 20260509020054 | 57 | 165 | 5.2 | 9.6 | 0.00 | 0.00 | 0.00 | 61 | 1006.4 |
| 20260509014600 | 58 | 167 | 4.3 | 8.7 | 0.00 | 0.00 | 0.00 | 61 | 1006.3 |
| 20260509013055 | 58 | 141 | 7.0 | 11.3 | 0.00 | 0.00 | 0.00 | 61 | 1006.2 |
| 20260509011552 | 59 | 210 | 8.7 | 13.0 | 0.00 | 0.00 | 0.00 | 60 | 1006.2 |
| 20260509010057 | 59 | 135 | 7.8 | 11.3 | 0.00 | 0.00 | 0.00 | 59 | 1006.1 |
| 20260509004550 | 60 | 141 | 7.0 | 11.3 | 0.00 | 0.00 | 0.00 | 58 | 1006.2 |
| 20260509003051 | 61 | 188 | 2.6 | 10.4 | 0.00 | 0.00 | 0.00 | 57 | 1006.1 |
| 20260509001555 | 61 | 176 | 3.5 | 8.7 | 0.00 | 0.00 | 0.00 | 56 | 1006.3 |
| 20260509000056 | 61 | 259 | 2.6 | 6.1 | 0.00 | 0.00 | 0.00 | 55 | 1006.4 |
| 20260508234555 | 62 | 136 | 3.5 | 8.7 | 0.00 | 0.00 | 0.00 | 56 | 1006.4 |
| 20260508233104 | 62 | 323 | 5.2 | 12.2 | 0.00 | 0.00 | 0.00 | 56 | 1006.5 |
| 20260508231554 | 62 | 269 | 7.8 | 13.0 | 0.00 | 0.00 | 0.00 | 56 | 1006.5 |
| 20260508224554 | 62 | 208 | 2.6 | 12.2 | 0.00 | 0.00 | 0.00 | 57 | 1006.8 |
| 20260508223056 | 62 | 76 | 3.5 | 8.7 | 0.00 | 0.00 | 0.00 | 56 | 1006.8 |
| 20260508221554 | 63 | 148 | 4.3 | 8.7 | 0.00 | 0.00 | 0.00 | 56 | 1006.9 |
| 20260508220058 | 62 | 342 | 4.3 | 9.6 | 0.00 | 0.00 | 0.00 | 58 | 1007.0 |
| 20260508214552 | 62 | 221 | 3.5 | 12.2 | 0.00 | 0.10 | 0.00 | 59 | 1007.1 |
| 20260508213051 | 62 | 159 | 3.5 | 10.4 | 0.00 | 0.10 | 0.00 | 57 | 1007.1 |
| 20260508211553 | 64 | 9 | 4.3 | 13.0 | 0.00 | 0.10 | 0.00 | 54 | 1007.1 |
| 20260508210104 | 64 | 80 | 3.5 | 15.6 | 0.00 | 0.10 | 0.00 | 52 | 1007.1 |
| 20260508204554 | 63 | 135 | 7.0 | 13.9 | 0.00 | 0.10 | 0.00 | 52 | 1007.2 |
| 20260508203059 | 63 | 170 | 4.3 | 14.8 | 0.00 | 0.10 | 0.00 | 46 | 1007.3 |
| 20260508201555 | 64 | 80 | 6.1 | 13.0 | 0.00 | 0.10 | 0.00 | 46 | 1007.4 |
| 20260508200057 | 65 | 72 | 4.3 | 11.3 | 0.00 | 0.10 | 0.00 | 47 | 1007.8 |
| 20260508194552 | 63 | 103 | 3.5 | 11.3 | 0.00 | 0.10 | 0.00 | 49 | 1008.0 |
| 20260508193109 | 64 | 82 | 6.1 | 12.2 | 0.00 | 0.10 | 0.00 | 45 | 1008.2 |
| 20260508191559 | 64 | 227 | 3.5 | 11.3 | 0.00 | 0.10 | 0.00 | 43 | 1008.3 |
| 20260508190052 | 64 | 214 | 4.3 | 13.9 | 0.00 | 0.10 | 0.00 | 40 | 1008.7 |
| 20260508184551 | 67 | 102 | 1.7 | 5.2 | 0.00 | 0.10 | 0.00 | 37 | 1008.9 |
| 20260508183050 | 66 | 154 | 0.9 | 8.7 | 0.00 | 0.10 | 0.00 | 39 | 1008.9 |
| 20260508181552 | 65 | 260 | 3.5 | 9.6 | 0.00 | 0.10 | 0.00 | 39 | 1009.0 |
| 20260508180052 | 65 | 224 | 2.6 | 8.7 | 0.00 | 0.10 | 0.00 | 37 | 1009.2 |
| 20260508174550 | 65 | 288 | 4.3 | 8.7 | 0.00 | 0.10 | 0.00 | 35 | 1009.5 |